EW4931 Weather Reports


time (UTC)temp
C
wind
direction
speed
KPH
gust
KPH
rain 1hr
cm
rain 24hr
cm
rain mn
cm
humidity
%
barometer
mb
20260831044216 17 281 6.4 20.9 0.00 0.00 0.00 92 1002.5
20260831043940 17 299 4.8 20.9 0.00 0.00 0.00 92 1002.5
20260831043216 17 272 9.7 19.3 0.00 0.00 0.00 93 1002.5
20260831042715 17 271 3.2 11.3 0.00 0.00 0.00 94 1002.5
20260831042215 17 282 6.4 11.3 0.00 0.00 0.00 94 1002.4
20260831041715 17 278 3.2 9.7 0.00 0.00 0.00 94 1002.3
20260831041438 17 269 3.2 6.4 0.00 0.00 0.00 94 1002.4
20260831040728 17 269 3.2 6.4 0.00 0.00 0.00 94 1002.4
20260831040215 17 234 1.6 8.0 0.00 0.00 0.00 94 1002.3
20260831035715 17 252 3.2 9.7 0.00 0.00 0.00 95 1002.3
20260831035215 17 274 4.8 9.7 0.00 0.00 0.00 95 1002.2
20260831034715 17 272 3.2 11.3 0.00 0.00 0.00 95 1002.3
20260831034440 17 265 4.8 11.3 0.00 0.00 0.00 95 1002.2
20260831033715 17 312 3.2 9.7 0.00 0.00 0.00 95 1002.2
20260831033436 17 274 1.6 8.0 0.00 0.00 0.00 95 1002.2
20260831032713 17 275 3.2 6.4 0.00 0.00 0.00 95 1002.1
20260831032214 17 313 1.6 8.0 0.00 0.00 0.00 95 1002.1
20260831031726 17 282 3.2 9.7 0.00 0.00 0.00 95 1002.1
20260831031214 17 309 4.8 8.0 0.00 0.00 0.00 95 1002.0
20260831030727 17 279 3.2 14.5 0.00 0.00 0.00 95 1002.1
20260831030438 17 275 6.4 14.5 0.00 0.00 0.00 95 1002.1
20260831025713 17 275 3.2 6.4 0.00 0.00 0.00 95 1002.1
20260831025440 17 290 1.6 4.8 0.00 0.00 0.00 95 1002.1
20260831024713 17 303 1.6 4.8 0.00 0.00 0.00 95 1002.1
20260831024218 17 282 0.0 6.4 0.00 0.00 0.00 95 1002.0
20260831023713 17 274 0.0 6.4 0.00 0.00 0.00 95 1002.1
20260831023213 17 250 1.6 4.8 0.00 0.00 0.00 95 1002.0
20260831022713 17 290 1.6 3.2 0.00 0.00 0.00 95 1002.0
20260831022213 17 237 1.6 3.2 0.00 0.00 0.00 95 1002.1
20260831021713 17 272 0.0 3.2 0.00 0.00 0.00 95 1002.1
20260831021213 17 272 0.0 3.2 0.00 0.00 0.00 95 1002.1
20260831020712 17 288 1.6 3.2 0.00 0.00 0.00 95 1002.0
20260831020212 17 288 0.0 4.8 0.00 0.00 0.00 95 1002.0
20260831015712 17 288 0.0 4.8 0.00 0.00 0.00 95 1001.9
20260831015214 17 288 0.0 4.8 0.00 0.00 0.00 95 1001.9
20260831014713 17 289 1.6 3.2 0.00 0.00 0.00 95 1001.9
20260831014213 17 289 0.0 3.2 0.00 0.00 0.00 95 1001.9
20260831013939 17 289 0.0 3.2 0.00 0.00 0.00 95 1001.8
20260831013213 17 289 0.0 3.2 0.00 0.00 0.00 95 1001.9
20260831012713 17 289 0.0 3.2 0.00 0.00 0.00 95 1001.8
20260831012212 17 289 0.0 3.2 0.00 0.00 0.00 95 1001.8
20260831011712 17 289 0.0 3.2 0.00 0.00 0.00 94 1001.8
20260831011441 17 289 0.0 1.6 0.00 0.00 0.00 94 1001.8
20260831010713 17 289 0.0 1.6 0.00 0.00 0.00 94 1001.9
20260831010212 17 289 0.0 1.6 0.00 0.00 0.00 94 1001.9
20260831005932 17 289 0.0 1.6 0.00 0.00 0.00 94 1001.9
20260831005211 17 289 1.6 3.2 0.00 0.00 0.00 95 1001.9
20260831004711 17 289 0.0 3.2 0.00 0.00 0.00 94 1001.9
20260831004211 17 203 0.0 0.0 0.00 0.00 0.00 94 1001.9
20260831003712 17 203 0.0 0.0 0.00 0.00 0.00 94 1002.0
20260831003434 17 203 0.0 0.0 0.00 0.00 0.00 94 1002.0
20260831002711 17 203 0.0 0.0 0.00 0.00 0.00 94 1002.1
20260831002211 17 203 0.0 0.0 0.00 0.00 0.00 94 1002.1
20260831001711 17 203 0.0 0.0 0.00 0.00 0.00 94 1002.1
20260831001211 17 203 0.0 1.6 0.00 0.00 0.00 94 1002.1
20260831000913 17 203 0.0 1.6 0.00 0.00 0.00 94 1002.1
20260830235711 17 203 0.0 0.0 0.00 0.00 0.00 94 1002.1
20260830235210 17 203 0.0 0.0 0.00 0.00 0.00 94 1002.0
20260830234710 17 203 0.0 0.0 0.00 0.00 0.00 94 1001.9
20260830234211 17 203 0.0 0.0 0.00 0.00 0.00 94 1002.0
20260830233710 17 203 0.0 1.6 0.00 0.00 0.00 94 1002.0
20260830233210 17 203 0.0 1.6 0.00 0.00 0.00 94 1002.2
20260830232935 17 203 0.0 1.6 0.00 0.00 0.00 94 1002.2
20260830232210 17 203 0.0 1.6 0.00 0.00 0.00 94 1002.2
20260830231710 17 203 0.0 1.6 0.00 0.00 0.00 94 1002.2
20260830231434 17 203 0.0 1.6 0.00 0.00 0.00 94 1002.1
20260830230709 17 203 0.0 0.0 0.00 0.00 0.00 94 1002.1
20260830230210 17 203 0.0 0.0 0.00 0.00 0.00 94 1002.1
20260830225710 17 203 0.0 0.0 0.00 0.00 0.00 93 1002.1
20260830225641 17 203 0.0 3.2 0.00 0.00 0.00 93 1002.2
20260830224213 17 175 1.6 6.4 0.00 0.00 0.00 93 1002.2
20260830223709 17 173 0.0 6.4 0.00 0.00 0.00 93 1002.2
20260830223208 17 180 0.0 3.2 0.00 0.00 0.00 93 1002.2
20260830222937 17 214 1.6 3.2 0.00 0.00 0.00 93 1002.2
20260830222209 17 217 0.0 3.2 0.00 0.00 0.00 93 1002.2
20260830221709 17 219 0.0 3.2 0.00 0.00 0.00 93 1002.2
20260830221209 17 216 0.0 3.2 0.00 0.00 0.00 93 1002.2
20260830220933 17 190 0.0 3.2 0.00 0.00 0.00 93 1002.2
20260830220208 17 135 0.0 3.2 0.00 0.00 0.00 93 1002.2
20260830215708 17 193 0.0 4.8 0.00 0.00 0.00 93 1002.3
20260830215208 17 173 0.0 4.8 0.00 0.00 0.00 93 1002.3
20260830214932 17 197 0.0 3.2 0.00 0.00 0.00 92 1002.5
20260830214207 17 197 0.0 3.2 0.00 0.00 0.00 93 1002.4
20260830213708 17 197 0.0 3.2 0.00 0.00 0.00 92 1002.5
20260830213207 17 197 1.6 3.2 0.00 0.00 0.00 92 1002.5
20260830212707 17 175 0.0 3.2 0.00 0.00 0.00 92 1002.6
20260830212208 17 231 0.0 1.6 0.00 0.00 0.00 92 1002.6
20260830211707 17 231 0.0 3.2 0.00 0.00 0.00 92 1002.6
20260830211207 17 235 1.6 4.8 0.00 0.00 0.00 92 1002.7
20260830210927 17 192 0.0 4.8 0.00 0.00 0.00 91 1002.7
20260830210432 17 209 0.0 6.4 0.00 0.00 0.00 91 1002.7
20260830205707 17 251 0.0 6.4 0.00 0.00 0.00 91 1002.7
20260830205207 17 209 0.0 6.4 0.00 0.00 0.00 91 1002.7
20260830204707 17 259 1.6 6.4 0.00 0.00 0.00 91 1002.8
20260830204206 17 204 3.2 4.8 0.00 0.00 0.00 91 1002.7
20260830203707 17 233 0.0 4.8 0.00 0.00 0.00 91 1002.8
20260830203207 17 233 3.2 4.8 0.00 0.00 0.00 91 1002.9
20260830202931 17 186 1.6 4.8 0.00 0.00 0.00 91 1002.9
20260830202206 17 235 0.0 9.7 0.00 0.00 0.00 91 1002.9
20260830201706 17 216 6.4 9.7 0.00 0.00 0.00 91 1002.9
20260830201207 17 224 4.8 9.7 0.00 0.00 0.00 91 1002.9
20260830200706 17 213 3.2 8.0 0.00 0.00 0.00 91 1002.9
20260830200427 17 197 3.2 6.4 0.00 0.00 0.00 91 1003.0
20260830195705 17 269 0.0 6.4 0.00 0.00 0.00 91 1003.0
20260830195207 17 182 1.6 8.0 0.00 0.00 0.00 91 1002.9
20260830194707 17 216 4.8 8.0 0.00 0.00 0.00 92 1003.0
20260830194207 17 183 3.2 6.4 0.00 0.00 0.00 92 1003.0
20260830193706 17 233 3.2 6.4 0.00 0.00 0.00 92 1003.1
20260830193205 17 200 1.6 6.4 0.00 0.00 0.00 92 1003.1
20260830192705 17 159 1.6 8.0 0.00 0.00 0.00 92 1003.1
20260830192206 17 172 0.0 8.0 0.00 0.00 0.00 92 1003.1
20260830191707 17 192 4.8 6.4 0.00 0.00 0.00 92 1003.1
20260830191204 17 169 1.6 6.4 0.00 0.00 0.00 92 1003.2
20260830190705 17 231 1.6 8.0 0.00 0.00 0.00 92 1003.2
20260830190204 17 213 1.6 8.0 0.00 0.00 0.00 92 1003.2
20260830185706 17 219 3.2 8.0 0.00 0.00 0.00 92 1003.1
20260830185204 17 204 4.8 8.0 0.00 0.00 0.00 92 1003.2
20260830184707 17 189 0.0 6.4 0.00 0.00 0.00 92 1003.2
20260830184206 17 137 1.6 9.7 0.00 0.00 0.00 92 1003.2
20260830183705 17 185 4.8 9.7 0.00 0.00 0.00 92 1003.2
20260830183205 17 190 0.0 6.4 0.00 0.00 0.00 92 1003.2
20260830182705 17 189 3.2 6.4 0.00 0.00 0.00 91 1003.3
20260830182434 17 213 1.6 6.4 0.00 0.00 0.00 91 1003.3
20260830181705 17 204 1.6 4.8 0.00 0.00 0.00 91 1003.3
20260830181434 17 193 1.6 8.0 0.00 0.00 0.00 91 1003.4
20260830180705 17 197 0.0 8.0 0.00 0.00 0.00 91 1003.4
20260830180205 17 196 3.2 9.7 0.00 0.00 0.00 91 1003.4
20260830175704 17 180 1.6 9.7 0.00 0.00 0.00 91 1003.4
20260830175428 17 268 3.2 8.0 0.00 0.00 0.00 91 1003.4
20260830174703 17 224 3.2 11.3 0.00 0.00 0.00 91 1003.4
20260830174204 17 224 0.0 11.3 0.00 0.00 0.00 91 1003.4
20260830173704 17 206 1.6 8.0 0.00 0.00 0.00 91 1003.5
20260830173205 17 185 3.2 14.5 0.00 0.00 0.00 91 1003.5
20260830172704 17 237 1.6 14.5 0.00 0.00 0.00 91 1003.5
20260830172204 17 209 1.6 6.4 0.00 0.00 0.00 91 1003.5
20260830171704 17 200 3.2 8.0 0.00 0.00 0.00 91 1003.5
20260830171204 17 193 3.2 9.7 0.00 0.00 0.00 91 1003.5
20260830170704 17 178 6.4 9.7 0.00 0.00 0.00 91 1003.5
20260830170647 17 192 0.0 8.0 0.00 0.00 0.00 92 1003.6
20260830165704 17 158 4.8 8.0 0.00 0.00 0.00 92 1003.6
20260830165204 17 188 1.6 8.0 0.00 0.00 0.00 92 1003.6
20260830164704 17 182 1.6 8.0 0.00 0.00 0.00 92 1003.6
20260830164204 17 180 4.8 8.0 0.00 0.00 0.00 92 1003.6
20260830163704 17 154 0.0 4.8 0.00 0.00 0.00 92 1003.6
20260830163203 17 151 3.2 9.7 0.00 0.00 0.00 91 1003.7
20260830162703 17 178 4.8 9.7 0.00 0.00 0.00 91 1003.7
20260830162203 17 186 3.2 8.0 0.00 0.00 0.00 91 1003.7
20260830161704 17 165 3.2 9.7 0.00 0.00 0.00 91 1003.8
20260830161203 17 180 3.2 14.5 0.00 0.00 0.00 91 1003.8
20260830160703 17 161 4.8 14.5 0.00 0.00 0.00 91 1003.8
20260830160216 17 173 3.2 11.3 0.00 0.00 0.00 91 1003.9
20260830155704 17 164 4.8 14.5 0.00 0.00 0.00 91 1003.9
20260830155425 17 180 6.4 14.5 0.00 0.00 0.00 91 1003.9
20260830154704 17 219 3.2 8.0 0.00 0.00 0.00 91 1004.0
20260830154203 17 144 6.4 9.7 0.00 0.00 0.00 91 1004.0
20260830153927 17 158 4.8 9.7 0.00 0.00 0.00 91 1004.2
20260830153203 17 158 3.2 9.7 0.00 0.00 0.00 91 1004.2
20260830152703 17 154 6.4 9.7 0.00 0.00 0.00 91 1004.3
20260830152204 17 149 3.2 6.4 0.00 0.00 0.00 91 1004.4
20260830151704 17 209 3.2 6.4 0.00 0.00 0.00 91 1004.5
20260830151204 17 151 3.2 6.4 0.00 0.00 0.00 91 1004.5
20260830150704 17 164 3.2 6.4 0.00 0.00 0.00 91 1004.5
20260830150204 17 171 1.6 4.8 0.00 0.00 0.00 91 1004.6
20260830145703 17 193 1.6 4.8 0.00 0.00 0.00 92 1004.7
20260830145647 17 166 1.6 4.8 0.00 0.00 0.00 91 1004.7
20260830144703 17 157 0.0 4.8 0.00 0.00 0.00 91 1004.6
20260830144204 17 207 1.6 4.8 0.00 0.00 0.00 92 1004.7
20260830144149 17 186 1.6 4.8 0.00 0.00 0.00 91 1004.8
20260830143203 17 200 3.2 4.8 0.00 0.00 0.00 91 1004.8
20260830142704 17 213 1.6 4.8 0.00 0.00 0.00 91 1004.9
20260830142420 17 210 1.6 4.8 0.00 0.00 0.00 92 1004.9
20260830141702 17 210 1.6 6.4 0.00 0.00 0.00 92 1004.9
20260830141202 17 193 3.2 6.4 0.00 0.00 0.00 92 1005.0
20260830141142 16 185 1.6 6.4 0.00 0.00 0.00 92 1005.0
20260830140430 16 196 1.6 6.4 0.00 0.00 0.00 91 1005.1
20260830135706 16 228 3.2 6.4 0.00 0.00 0.00 91 1005.0
20260830135204 16 199 3.2 6.4 0.00 0.00 0.00 91 1005.0
20260830134706 16 244 3.2 8.0 0.00 0.00 0.00 91 1005.0
20260830134204 16 278 1.6 8.0 0.00 0.00 0.00 91 1005.1
20260830133924 17 231 3.2 8.0 0.00 0.00 0.00 92 1005.2
20260830133203 16 252 0.0 8.0 0.00 0.00 0.00 92 1005.2
20260830132704 16 178 3.2 8.0 0.00 0.00 0.00 91 1005.3
20260830132423 17 202 3.2 9.7 0.00 0.00 0.00 92 1005.3
20260830131703 17 172 3.2 9.7 0.00 0.00 0.00 92 1005.2
20260830131203 17 217 3.2 4.8 0.00 0.00 0.00 92 1005.2
20260830130703 17 221 0.0 4.8 0.00 0.00 0.00 92 1005.2
20260830130203 16 221 0.0 4.8 0.00 0.00 0.00 92 1005.2
20260830125928 16 247 1.6 6.4 0.00 0.00 0.00 91 1005.3
20260830125428 16 172 3.2 6.4 0.00 0.00 0.00 91 1005.3
20260830124704 16 203 1.6 11.3 0.00 0.00 0.00 90 1005.3
20260830124205 16 196 3.2 11.3 0.00 0.00 0.00 90 1005.3
20260830123704 16 202 3.2 9.7 0.00 0.00 0.00 89 1005.4
20260830123204 16 245 3.2 9.7 0.00 0.00 0.00 89 1005.4
20260830122705 16 240 4.8 11.3 0.00 0.00 0.00 88 1005.4
20260830122204 17 235 4.8 11.3 0.00 0.00 0.00 88 1005.5
20260830121705 17 281 3.2 8.0 0.00 0.00 0.00 87 1005.5
20260830121205 17 221 3.2 16.1 0.00 0.00 0.00 87 1005.5
20260830120705 17 0 6.4 16.1 0.00 0.00 0.00 86 1005.5
20260830120205 17 266 6.4 17.7 0.00 0.00 0.00 85 1005.5
20260830115704 17 299 6.4 17.7 0.00 0.00 0.00 84 1005.5
20260830115204 18 268 4.8 14.5 0.00 0.00 0.00 82 1005.5
20260830114924 18 221 8.0 16.1 0.00 0.00 0.00 80 1005.5
20260830114204 18 271 6.4 19.3 0.00 0.00 0.00 78 1005.4
20260830113704 18 233 8.0 19.3 0.00 0.00 0.00 78 1005.3
20260830113205 19 269 6.4 16.1 0.00 0.00 0.00 79 1005.3
20260830112704 19 223 3.2 19.3 0.00 0.00 0.00 79 1005.4
20260830112209 18 278 9.7 17.7 0.00 0.00 0.00 78 1005.3
20260830111705 19 272 4.8 16.1 0.00 0.00 0.00 77 1005.3
20260830111206 19 290 6.4 22.5 0.00 0.00 0.00 76 1005.3
20260830110705 19 202 8.0 22.5 0.00 0.00 0.00 76 1005.4
20260830110205 20 224 8.0 11.3 0.00 0.00 0.00 75 1005.3
20260830105709 20 199 1.6 8.0 0.00 0.00 0.00 76 1005.3
20260830105204 20 204 3.2 11.3 0.00 0.00 0.00 76 1005.3
20260830104705 20 237 6.4 14.5 0.00 0.00 0.00 76 1005.3
20260830104205 20 210 8.0 14.5 0.00 0.00 0.00 76 1005.3
20260830103705 20 186 6.4 14.5 0.00 0.00 0.00 76 1005.2
20260830103422 20 275 6.4 14.5 0.00 0.00 0.00 78 1005.2
20260830102705 20 169 6.4 14.5 0.00 0.00 0.00 78 1005.2
20260830102205 20 195 6.4 11.3 0.00 0.00 0.00 78 1005.2
20260830101705 20 257 3.2 16.1 0.00 0.00 0.00 77 1005.3
20260830101205 20 224 8.0 16.1 0.00 0.00 0.00 77 1005.2
20260830100704 20 254 3.2 14.5 0.00 0.00 0.00 79 1005.3
20260830100205 20 245 6.4 17.7 0.00 0.00 0.00 79 1005.2
20260830095705 20 257 4.8 17.7 0.00 0.00 0.00 80 1005.2
20260830095204 20 202 8.0 16.1 0.00 0.00 0.00 79 1005.2
20260830094705 20 269 8.0 16.1 0.00 0.00 0.00 79 1005.3
20260830094204 20 210 6.4 17.7 0.00 0.00 0.00 76 1005.3
20260830093704 20 226 3.2 17.7 0.00 0.00 0.00 76 1005.2
20260830093204 20 245 6.4 16.1 0.00 0.00 0.00 75 1005.2
20260830092704 20 268 3.2 9.7 0.00 0.00 0.00 78 1005.2
20260830092428 20 190 4.8 11.3 0.00 0.00 0.00 79 1005.2
20260830091705 20 220 6.4 11.3 0.00 0.00 0.00 78 1005.2
20260830091205 20 298 3.2 8.0 0.00 0.00 0.00 80 1005.1
20260830090704 20 221 1.6 14.5 0.00 0.00 0.00 80 1005.1
20260830090204 20 247 6.4 20.9 0.00 0.00 0.00 79 1005.1
20260830085926 20 237 6.4 20.9 0.00 0.00 0.00 78 1005.1
20260830085205 20 252 4.8 16.1 0.00 0.00 0.00 80 1005.1
20260830084705 19 288 8.0 16.1 0.00 0.00 0.00 80 1005.2
20260830084204 19 293 3.2 8.0 0.00 0.00 0.00 82 1005.2
20260830083704 19 240 3.2 14.5 0.00 0.00 0.00 83 1005.2
20260830083204 18 234 3.2 19.3 0.00 0.00 0.00 83 1005.2
20260830082705 18 230 6.4 19.3 0.00 0.00 0.00 84 1005.2
20260830082205 18 274 6.4 11.3 0.00 0.00 0.00 83 1005.1
20260830081705 18 266 4.8 14.5 0.00 0.00 0.00 84 1005.1
20260830081205 18 247 6.4 14.5 0.00 0.00 0.00 84 1005.1
20260830080706 18 255 6.4 16.1 0.00 0.00 0.00 84 1005.1
20260830080205 18 238 6.4 16.1 0.00 0.00 0.00 84 1005.1
20260830075704 18 235 4.8 9.7 0.00 0.00 0.00 85 1005.1
20260830075204 18 248 3.2 11.3 0.00 0.00 0.00 85 1005.1
20260830074925 18 288 4.8 11.3 0.00 0.00 0.00 86 1005.1
20260830074205 18 248 3.2 11.3 0.00 0.00 0.00 88 1005.1
20260830073704 18 274 1.6 11.3 0.00 0.00 0.00 89 1005.1
20260830073205 18 223 3.2 9.7 0.00 0.00 0.00 90 1005.1
20260830072705 18 278 1.6 11.3 0.00 0.00 0.00 92 1005.1
20260830072206 18 214 3.2 11.3 0.00 0.00 0.00 92 1005.0
20260830071705 17 220 1.6 9.7 0.00 0.00 0.00 93 1005.1
20260830071206 17 234 3.2 9.7 0.00 0.00 0.00 95 1005.1
20260830070705 17 254 3.2 8.0 0.00 0.00 0.00 95 1005.1
20260830070205 17 244 1.6 6.4 0.00 0.00 0.00 95 1005.1
20260830065928 17 171 3.2 6.4 0.00 0.00 0.00 96 1005.1
20260830065429 17 182 1.6 8.0 0.00 0.00 0.00 96 1005.1
20260830064705 16 235 4.8 8.0 0.00 0.00 0.00 96 1005.1
20260830064204 16 265 3.2 8.0 0.00 0.00 0.00 96 1005.1
20260830063704 16 275 3.2 9.7 0.00 0.00 0.00 96 1005.0
20260830063203 16 251 1.6 9.7 0.00 0.00 0.00 96 1004.9
20260830062704 16 283 1.6 6.4 0.00 0.00 0.00 96 1005.0
20260830062204 16 244 1.6 6.4 0.00 0.00 0.00 96 1005.1
20260830061703 16 212 3.2 6.4 0.00 0.00 0.00 96 1005.0
20260830061205 16 199 1.6 6.4 0.00 0.00 0.00 96 1005.0
20260830060932 16 231 3.2 6.4 0.00 0.00 0.00 96 1005.1
20260830060204 16 251 3.2 6.4 0.00 0.00 0.00 96 1005.0
20260830055704 16 243 0.0 4.8 0.00 0.00 0.00 96 1005.0
20260830055203 16 219 1.6 4.8 0.00 0.00 0.00 96 1004.9
20260830054704 16 226 1.6 4.8 0.00 0.00 0.00 96 1004.9
20260830054203 16 250 1.6 6.4 0.00 0.00 0.00 96 1004.9
20260830053703 15 226 0.0 6.4 0.00 0.00 0.00 96 1004.8
20260830053204 15 200 0.0 6.4 0.00 0.00 0.00 96 1004.9
20260830052924 15 244 3.2 6.4 0.00 0.00 0.00 96 1004.9
20260830052203 15 213 0.0 4.8 0.00 0.00 0.00 96 1004.9
20260830051703 15 213 1.6 4.8 0.00 0.00 0.00 96 1004.9
20260830051204 15 199 1.6 4.8 0.00 0.00 0.00 96 1004.9
20260830050704 15 265 1.6 4.8 0.00 0.00 0.00 96 1004.8
20260830050203 15 185 1.6 4.8 0.00 0.00 0.00 96 1004.9
20260830045703 15 202 1.6 4.8 0.00 0.00 0.00 96 1004.8
20260830045203 15 202 1.6 4.8 0.00 0.00 0.00 96 1004.8
20260830044704 15 202 0.0 4.8 0.00 0.00 0.00 96 1004.8